www.pogodaiklimat.ru
ПОГОДА в Кошалине

Архив погоды в Кошалине (Польша)

Время
(UTC), дата
16 21.05
17 21.05
18 21.05
19 21.05
20 21.05
21 21.05
22 21.05
23 21.05
00 22.05
01 22.05
02 22.05
03 22.05
04 22.05
05 22.05
06 22.05
07 22.05
08 22.05
09 22.05
10 22.05
11 22.05
12 22.05
13 22.05
14 22.05
15 22.05
16 22.05
17 22.05
18 22.05
19 22.05
20 22.05
21 22.05
22 22.05
23 22.05
00 23.05
01 23.05
02 23.05
03 23.05
04 23.05
05 23.05
06 23.05
07 23.05
08 23.05
09 23.05
10 23.05
11 23.05
12 23.05
13 23.05
14 23.05
15 23.05
16 23.05
17 23.05
18 23.05
19 23.05
20 23.05
21 23.05
22 23.05
23 23.05
00 24.05
01 24.05
02 24.05
03 24.05
04 24.05
05 24.05
06 24.05
07 24.05
08 24.05
09 24.05
10 24.05
11 24.05
12 24.05
13 24.05
14 24.05
15 24.05
16 24.05
17 24.05
18 24.05
19 24.05
20 24.05
21 24.05
22 24.05
23 24.05
00 25.05
01 25.05
02 25.05
03 25.05
04 25.05
05 25.05
06 25.05
07 25.05
08 25.05
09 25.05
10 25.05
11 25.05
12 25.05
13 25.05
14 25.05
15 25.05
16 25.05
17 25.05
18 25.05
19 25.05
20 25.05
21 25.05
22 25.05
23 25.05
00 26.05
01 26.05
02 26.05
03 26.05
04 26.05
05 26.05
06 26.05
07 26.05
08 26.05
09 26.05
10 26.05
11 26.05
12 26.05
13 26.05
14 26.05
15 26.05
16 26.05
17 26.05
18 26.05
19 26.05
20 26.05
21 26.05
22 26.05
23 26.05
00 27.05
01 27.05
02 27.05
03 27.05
04 27.05
05 27.05
06 27.05
07 27.05
08 27.05
09 27.05
10 27.05
11 27.05
12 27.05
13 27.05
14 27.05
15 27.05
16 27.05
17 27.05
18 27.05
19 27.05
20 27.05
21 27.05
22 27.05
23 27.05
00 28.05
01 28.05
02 28.05
03 28.05
04 28.05
05 28.05
06 28.05
07 28.05
08 28.05
09 28.05
10 28.05
11 28.05
12 28.05
13 28.05
14 28.05
15 28.05
16 28.05
Ветер
(напр.,м/с)
Видим. Явления Облачность Т
(С)
Тd
(С)
f
(%)
Тe
(С)
Тes
(С)
Комфортность P
(гПа)
Po
(гПа)
Тmin
(С)
Tmax
(С)
R
(мм)
R24
(мм)
S
(см)
СВ 4 {9} 30 км 3/1 1500 м
[Cu med, cong Ci fib]
+23.1 +14.6 59 +27 +29 душно 1012.5 1008.5
СВ 4-9 {9} 40 км 4/1 1500 м
[Cu med, cong Ci fib]
+22.9 +13.9 57 +26 +27 жарко 1012.2 1008.2
СВ 2-7 {10} 40 км {гроза, ливн. дождь} 5/1 1500 м
[Cb calv Cs]
+21.7 +12.8 57 +24 +25 комфорт 1012.6 1008.6 +15.5 +23.7 0.5
СВ 3 50 км 5/0
[Ac cuf Cs]
+20.3 +13.0 63 +23 +23 комфорт 1012.8 1008.8
В 2 45 км 4/0
[Ci fib]
+19.1 +12.8 67 +21 +21 комфорт 1013.1 1009.0
В 2 45 км н/о +18.3 +13.2 72 +19 +19 1012.9 1008.8
В 2 45 км н/о +18.0 +13.3 74 +19 +19 1012.6 1008.5
В 2 40 км н/о +17.8 +13.3 75 +18 +18 1012.4 1008.3
В 3 45 км н/о +17.6 +13.1 75 +18 +18 1011.9 1007.8
ЮВ 4 40 км н/о +17.7 +12.8 73 +17 +17 1011.6 1007.5
В 3 40 км н/о +17.4 +12.3 72 +17 +17 1011.3 1007.2
В 3 45 км н/о +17.3 +12.2 72 +17 +17 1011.4 1007.3
В 4 35 км н/о +17.6 +12.1 70 +17 +17 1011.4 1007.3
В 3 45 км 10/0
[Cs]
+18.7 +12.4 67 +20 +21 1011.4 1007.3
В 3 30 км 10/0
[Cs]
+20.8 +12.7 60 +24 +27 комфорт 1011.3 1007.3 +17.1 +21.7 0.5
В 3 29 км 10/0
[Cs]
+22.3 +13.1 56 +25 +30 комфорт 1011.3 1007.3
В 4 30 км 10/0
[Ac lent Cs]
+23.7 +13.0 51 +26 +31 жарко 1011.1 1007.1
В 4-9 {9} 35 км 10/0
[Ac lent Cs]
+25.1 +10.9 41 +26 +33 жарко 1010.8 1006.8
В 3-8 {9} 30 км 10/0
[Ac lent Cs]
+26.0 +10.2 37 +27 +36 жарко 1010.4 1006.4
В 3 {10} 30 км 10/1 1500 м
[Cu hum Ac trans Cs]
+26.7 +11.6 39 +28 +34 жарко 1010.0 1006.1
В 4-10 {10} 30 км 5/1 1500 м
[Cu hum Ac trans Cs]
+27.0 +9.4 33 +27 +34 жарко 1009.6 1005.7
В 4 {10} 30 км 3/1 1500 м
[Cu med, cong Cs]
+27.3 +9.6 33 +28 +35 жарко 1009.3 1005.4
В 3 {8} 35 км 3/1 2000 м
[Cu med, cong Ac trans Cs]
+27.2 +11.2 37 +28 +35 жарко 1008.8 1004.9
В 3-8 {10} 35 км 3/1 2000 м
[Cu med, cong Ac trans Cs]
+27.0 +11.5 38 +28 +33 жарко 1008.2 1004.3
В 4-9 {10} 35 км 3/1 2000 м
[Cu med, cong Ac cast Cs]
+26.2 +13.3 45 +28 +30 жарко 1008.2 1004.3
В 4 {9} 21 км 3/0
[Ac trans Cs]
+25.4 +13.3 47 +27 +29 жарко 1008.5 1004.5
В 2 {10} 40 км 3/1 2000 м
[Cu med, cong Cs]
+24.4 +13.6 51 +27 +27 жарко 1008.8 1004.8 +20.8 +27.6
В 2 45 км 4/1 1500 м
[Cu med, cong Ac cast]
+22.9 +13.4 55 +26 +26 жарко 1009.4 1005.4
В 2 45 км 6/1 1500 м
[Cu med, cong Ac cast]
+22.1 +13.2 57 +25 +25 комфорт 1010.2 1006.2
ЮВ 1 45 км н/о +20.4 +13.8 66 +24 +24 комфорт 1010.4 1006.4
В 1 40 км н/о +18.6 +13.9 74 +20 +20 1010.5 1006.4
штиль 0 45 км н/о +18.2 +13.5 74 +18 +18 1010.2 1006.1
В 1 45 км н/о +18.0 +13.5 75 +19 +19 1010.0 1005.9
СВ 1 35 км н/о +16.9 +13.8 82 +18 +18 1010.4 1006.3
ЮВ 1 30 км н/о +16.7 +13.8 83 +18 +18 1010.4 1006.3
штиль 0 30 км н/о +16.4 +14.1 86 +16 +16 1010.7 1006.6
Ю 1 18 км слаб. ливневой дождь н/о +17.5 +13.6 78 +19 +19 1010.9 1006.8
Ю 2 22 км слаб. ливневой дождь 10/10 2000 м
[Cb cap]
+17.6 +13.9 79 +18 +18 1010.9 1006.8
Ю 2 21 км в посл. час ливневой дождь 10/10 1000 м
[Cb cap]
+16.9 +15.1 89 +17 +17 1011.2 1007.1 +16.4 +24.4 0.3 0.3
ЮВ 2 26 км 10/0
[Ac As]
+17.5 +15.8 90 +18 +20 1011.6 1007.5
ЮВ 3 29 км 9/0
[Ac As]
+18.8 +15.8 83 +20 +23 1011.7 1007.6
ЮВ 3 26 км 9/9 300 м
[Sc]
+20.3 +15.7 75 +23 +24 комфорт 1011.9 1007.9
В 2 15 км слаб. ливневой дождь 10/10 600 м
[Cb cap]
+19.6 +16.4 82 +22 +22 комфорт 1012.1 1008.0
ЮВ 4 35 км в посл. час ливневой дождь 10/10 600 м
[Cb cap]
+19.5 +14.5 73 +21 +21 комфорт 1012.6 1008.5
ЮВ 2 6000 м слаб. ливневой дождь 10/10 1000 м
[Cb cap]
+17.5 +15.5 88 +18 +18 1013.2 1009.1 1
Ю 2 12 км слаб. ливневой дождь 10/10 600 м
[Cb cap]
+17.4 +16.3 93 +18 +18 1013.2 1009.1
З 4 29 км слаб. ливневой дождь 10/10 150 м
[Cb cap]
+16.2 +14.7 91 +15 +15 1013.7 1009.6
З 3 18 км в посл. час ливневой дождь 10/10 180 м
[St]
+15.5 +14.7 95 +15 +15 1014.5 1010.4
З 4 40 км 9/9 360 м
[Sc]
+15.5 +14.2 92 +14 +15 1015.0 1010.9
З 3 50 км 9/8 480 м
[Sc Ac trans]
+16.1 +13.8 86 +16 +16 1015.6 1011.5
З 2 45 км {ливн. дождь} 6/1 1000 м
[Sc Ac trans Ci fib]
+16.3 +13.4 83 +16 +17 1015.9 1011.8 +15.2 +20.5 3
СЗ 1 24 км 8/0
[Ac trans Cs]
+15.4 +13.4 88 +16 +16 1016.4 1012.3
штиль 0 13 км 3/0
[Ci fib]
+14.2 +13.2 94 +14 +14 1017.4 1013.2
Ю 1 12 км н/о +13.9 +13.1 95 +14 +14 1018.0 1013.8
Ю 1 9000 м н/о +13.5 +12.9 96 +14 +14 1018.2 1014.0
ЮВ 2 8000 м дымка н/о +13.1 +12.5 96 +12 +12 1018.6 1014.4
штиль 0 8000 м дымка н/о +12.9 +12.3 96 +12 +12 1018.9 1014.7
ЮВ 2 10 км дымка н/о +13.2 +12.7 97 +12 +12 1019.4 1015.2
ЮВ 2 10 км н/о +13.2 +12.6 96 +12 +12 1019.8 1015.6
ЮВ 1 6000 м дымка н/о +12.5 +12.0 97 +12 +12 1020.1 1015.9
Ю 1 8000 м дымка н/о +12.9 +12.4 97 +13 +13 1020.2 1016.0
ЮВ 1 12 км 4/0
[Ci sp]
+15.4 +13.8 90 +16 +18 1020.4 1016.3
С 1 22 км 5/1 1000 м
[Cu hum Ci sp]
+16.8 +13.3 80 +18 +22 1020.8 1016.7 +12.5 +17.0 2.8
С 2 21 км 6/1 1000 м
[Cu med, cong Ci sp]
+17.7 +13.4 76 +18 +24 1020.9 1016.8
С 2 22 км 6/3 600 м
[Cu med, cong Ci sp]
+18.5 +14.0 75 +20 +26 1021.3 1017.2
С 3 27 км 6/1 600 м
[Cu med, cong Ci sp]
+18.1 +13.2 73 +18 +27 1021.7 1017.6
С 3 25 км 8/0
[Ci sp]
+18.2 +13.1 72 +19 +29 1021.8 1017.7
С 3 20 км 6/0
[Ac trans Ci sp]
+18.2 +12.9 71 +19 +30 1021.9 1017.8
С 3 30 км 6/0
[Ac trans Ci sp]
+19.2 +12.7 66 +21 +31 комфорт 1021.7 1017.6
С 4 28 км 5/1 600 м
[Cu med, cong Ci sp]
+19.1 +12.1 64 +20 +27 1021.3 1017.2
С 4 29 км 4/1 600 м
[Cu med, cong Ci sp]
+19.0 +12.0 64 +20 +26 1021.0 1016.9
С 4 30 км 4/1 600 м
[Cu med, cong Ci sp]
+19.1 +11.4 61 +20 +24 1020.8 1016.7
С 4 35 км 5/1 600 м
[Cu med, cong Ci sp]
+19.0 +11.1 60 +20 +22 1020.2 1016.1
С 2 40 км 6/0
[Cs]
+18.9 +11.5 62 +20 +22 1020.1 1016.0
С 2 40 км 8/0
[Ci sp]
+18.3 +12.1 67 +19 +20 1019.9 1015.8 +16.8 +19.5
С 2 35 км 8/0
[Ac trans Cs]
+16.7 +12.4 76 +17 +17 1019.7 1015.6
С 1 40 км 9/3 600 м
[Cb cap Ac As]
+15.4 +11.6 78 +16 +16 1019.7 1015.6
В 2 2500 м сильн. ливневой дождь н/о +15.7 +13.2 85 +16 +16 1020.4 1016.3
С 2 21 км в посл. час дождь н/о +14.4 +12.8 90 +14 +14 1018.8 1014.6
штиль 0 16 км н/о +13.7 +12.4 92 +13 +13 1019.2 1015.0
СВ 1 16 км н/о +13.5 +12.4 93 +14 +14 1018.8 1014.6 2
З 1 8000 м дымка н/о +12.7 +12.1 96 +13 +13 1019.0 1014.8
штиль 0 2400 м дымка н/о +12.1 +11.5 96 +11 +11 1019.1 1014.9
штиль 0 600 м туман н/о +11.6 +11.1 97 +11 +11 1019.0 1014.8
СВ 1 8000 м в посл. час туман н/о +12.3 +11.8 97 +12 +12 1018.9 1014.7
СВ 1 15 км 10/0
[Cs]
+15.2 +13.4 89 +16 +18 1018.4 1014.3
ЮВ 2 24 км 8/0
[Cs]
+16.6 +13.1 80 +17 +21 1018.4 1014.3 +11.3 +18.3 2 2.4
ЮВ 3 23 км 4/0
[Ac trans Cs]
+18.3 +14.2 77 +19 +24 1018.4 1014.3
В 3 30 км 4/1 600 м
[Cu hum Cs]
+20.6 +15.2 71 +24 +31 комфорт 1018.6 1014.5
Ю 4 30 км 1/1 1000 м
[Cu med, cong]
+21.9 +13.8 60 +25 +33 комфорт 1018.8 1014.8
Ю 4 30 км 1/1 600 м
[Cu hum]
+23.3 +14.0 56 +27 +36 душно 1018.9 1014.9
ЮВ 3 35 км 1/1 600 м
[Cu hum]
+24.0 +13.8 53 +26 +38 жарко 1018.8 1014.8
ЮВ 3 35 км 5/4 1000 м
[Cu med, cong Ac lent]
+23.4 +13.8 55 +27 +33 душно 1018.8 1014.8
С 4 30 км 5/5 1000 м
[Cb calv]
+22.5 +14.9 62 +26 +31 жарко 1018.5 1014.5
С 3 35 км слаб. ливневой дождь, в посл. час гроза 9/9 300 м
[Cb cap]
+21.6 +14.5 64 +25 +26 комфорт 1018.8 1014.7
С 2 21 км в посл. час ливневой дождь {гроза} 6/6 600 м
[Cb cap]
+18.7 +15.9 84 +20 +23 1018.7 1014.6
С 3 35 км гроза без осадков 9/9 1000 м
[Cb cap]
+21.5 +15.3 68 +25 +25 комфорт 1018.4 1014.3
С 1 30 км в посл. час ливневой дождь 9/5 1000 м
[Cb cap Ac cuf]
+20.6 +16.0 75 +25 +25 комфорт 1018.4 1014.3
С 1 23 км {гроза, ливн. дождь} 9/3 1500 м
[Cb cap Ac cuf]
+19.2 +16.2 83 +22 +22 комфорт 1018.5 1014.4 +16.6 +24.8 0.1
С 1 13 км слаб. ливневой дождь 9/6 1500 м
[Cb cap Ac cuf]
+17.8 +15.6 87 +19 +19 1018.9 1014.8
штиль 0 10 км в посл. час ливневой дождь 10/0
[Ac cuf Cs]
+16.7 +15.2 91 +17 +17 1019.1 1015.0
С 1 8000 м дымка н/о +16.3 +15.3 94 +17 +17 1019.1 1015.0
штиль 0 4900 м дымка н/о +15.4 +14.4 94 +15 +15 1019.1 1015.0
штиль 0 5000 м дымка н/о +14.9 +14.3 96 +15 +15 1019.0 1014.9
штиль 0 4100 м дымка н/о +14.2 +13.6 96 +14 +14 1018.7 1014.5 0.0
Ю 1 11 км дымка н/о +15.1 +14.6 97 +16 +16 1018.5 1014.4
ЮВ 2 17 км н/о +16.4 +14.9 91 +16 +16 1018.5 1014.4
ЮВ 1 8000 м дымка н/о +14.9 +14.1 95 +15 +15 1018.8 1014.7
ЮВ 3 25 км н/о +16.8 +14.4 86 +17 +17 1018.9 1014.8
ЮВ 3 22 км 9/1 600 м
[Cb calv Ac As]
+16.9 +14.5 86 +17 +17 1019.1 1015.0
Ю 3 28 км в посл. час ливневой дождь 9/9 2000 м
[Cb cap]
+17.2 +14.5 84 +17 +18 1019.5 1015.4 +14.0 +19.2 0.0 0.1
ЮВ 3 25 км 9/0
[Ac As]
+18.1 +14.6 80 +18 +21 1019.3 1015.2
ЮВ 3 30 км 9/0
[Ac As]
+19.1 +14.6 75 +21 +24 комфорт 1019.7 1015.6
ЮВ 3 30 км 8/0
[Ac trans]
+21.4 +14.5 65 +24 +30 комфорт 1019.9 1015.8
Ю 2 40 км 3/1 1000 м
[Cu med, cong Ac trans]
+23.3 +13.7 55 +27 +39 душно 1019.8 1015.8
Ю 2 30 км 3/3 1000 м
[Cu med, cong]
+24.7 +13.6 50 +27 +38 жарко 1019.5 1015.5
Ю 2 40 км 6/6 1500 м
[Cb calv]
+25.4 +12.9 46 +27 +33 жарко 1019.3 1015.3
СЗ 2 35 км гроза без осадков {ливн. дождь} 9/9 600 м
[Cb cap]
+21.7 +16.9 74 +26 +27 душно 1019.5 1015.4
СЗ 3 40 км в посл. час гроза {ливн. дождь} 9/9 1500 м
[Cb cap]
+20.6 +15.8 74 +24 +25 комфорт 1019.4 1015.3
СВ 2 {9} 11 км гроза, ливневой дождь 9/9 600 м
[Cb cap]
+17.5 +15.3 87 +18 +19 1019.9 1015.8
В 1 35 км слаб. ливневой дождь 9/9 2000 м
[Cb cap]
+18.8 +16.9 89 +21 +22 комфорт 1018.9 1014.8
СВ 1 35 км 9/3 2000 м
[Cb calv Cs]
+20.4 +15.8 75 +24 +26 комфорт 1018.8 1014.7
В 2 {9} 40 км гроза без осадков {ливн. дождь} 9/4 1000 м
[Cb calv Cs]
+19.9 +15.1 74 +23 +23 комфорт 1019.1 1015.0 +17.2 +25.6 12
ЮВ 3 {11} 24 км гроза, ливневой дождь 10/10 1000 м
[Cb cap]
+17.5 +15.7 89 +17 +17 1020.6 1016.5
ЮВ 1 17 км в посл. час гроза {ливн. дождь} 9/9 2000 м
[Cb cap]
+16.4 +15.6 95 +17 +17 1020.2 1016.1
В 1 {11} 22 км н/о +16.3 +15.3 94 +17 +17 1019.5 1015.4
ЮВ 2 40 км н/о +16.5 +14.3 87 +17 +17 1019.8 1015.7
ЮВ 3 40 км н/о +16.8 +14.6 87 +17 +17 1019.7 1015.6
ЮВ 2 {11} 40 км н/о +16.9 +14.2 84 +17 +17 1019.6 1015.5 3
ЮВ 2 40 км н/о +16.3 +14.0 86 +16 +16 1019.1 1015.0
ЮВ 3 50 км н/о +16.3 +13.4 83 +16 +16 1018.9 1014.8
ЮВ 3 45 км н/о +16.1 +13.0 82 +16 +16 1019.0 1014.9
ЮВ 3 40 км н/о +16.3 +12.6 79 +16 +16 1019.1 1015.0
ЮВ 3 35 км 6/1 600 м
[Sc diur, vesp Ac trans Ci sp]
+17.4 +12.9 75 +17 +19 1019.3 1015.2
ЮВ 4 30 км 6/0
[Ac trans Ci sp]
+18.6 +13.0 70 +19 +21 1019.1 1015.0 +15.9 +20.6 3 14.9
ЮВ 4 35 км 8/0
[Ac trans Ci sp]
+20.6 +13.5 64 +23 +27 комфорт 1019.0 1014.9
ЮВ 4 40 км 8/0
[Ac trans Ci sp]
+22.2 +12.7 55 +25 +30 комфорт 1018.8 1014.8
Ю 3 30 км 6/0
[Ac trans Ci sp]
+24.0 +13.2 51 +26 +36 жарко 1018.6 1014.6
Ю 3 35 км 6/0
[Ci sp]
+25.0 +12.9 47 +27 +38 жарко 1018.1 1014.1
Ю 3 30 км 8/1 600 м
[Cu med, cong Cs]
+26.3 +12.7 43 +28 +38 жарко 1017.7 1013.7
Ю 4 35 км 9/3 1000 м
[Cu med, cong Cs]
+26.5 +11.4 39 +28 +34 жарко 1017.3 1013.3
ЮВ 4 30 км 9/4 1000 м
[Cb calv Cs]
+26.7 +13.1 43 +28 +33 жарко 1016.7 1012.7
ЮВ 4 45 км 8/8 1000 м
[Cb calv]
+26.5 +11.0 38 +27 +29 жарко 1016.2 1012.2
З 8 {14} 25 км гроза без осадков {ливн. дождь} 9/9 1000 м
[Cb cap]
+18.7 +14.8 78 +19 +19 1017.4 1013.3
С 2 {12} 27 км гроза без осадков {ливн. дождь} 9/9 1500 м
[Cb cap]
+17.1 +13.6 80 +17 +18 1017.9 1013.8
ЮЗ 1 6000 м гроза, ливневой дождь 10/10 1000 м
[Cb cap]
+16.1 +14.8 92 +17 +17 1019.3 1015.2
С 3 {14} 11 км слаб. ливневой дождь, в посл. час гроза 9/9 2000 м
[Cb cap]
+15.6 +15.1 97 +15 +15 1017.4 1013.3 +15.4 +27.2 6
Ю 1 35 км гроза без осадков {ливн. дождь} 9/9 2000 м
[Cb cap]
+16.0 +14.9 93 +17 +17 1018.3 1014.2
В 1 12 км 9/9 2000 м
[Cb cap]
+15.9 +15.3 96 +17 +17 1017.5 1013.4
ЮВ 2 20 км н/о +15.8 +15.0 95 +16 +16 1017.4 1013.3
В 3 19 км н/о +15.6 +14.8 95 +15 +15 1017.0 1012.9
В 1 30 км н/о +15.9 +14.6 92 +17 +17 1016.6 1012.5
ЮВ 2 40 км н/о +16.1 +14.1 88 +16 +16 1015.9 1011.8 0.3
В 1 40 км н/о +15.7 +13.7 88 +16 +16 1015.4 1011.3
ЮВ 1 45 км н/о +15.8 +12.9 83 +16 +16 1014.9 1010.8
ЮВ 3 40 км н/о +16.0 +12.4 79 +16 +16 1014.4 1010.3
ЮВ 3 30 км н/о +15.7 +12.6 82 +15 +15 1014.2 1010.1
ЮВ 3 30 км 6/0
[Ac trans Ci fib]
+16.2 +12.4 78 +16 +17 1014.3 1010.2
ЮВ 3 30 км 5/0
[Ac cast Ci fib]
+18.5 +13.1 71 +19 +22 1014.2 1010.1 +15.3 +18.5 0.3 6.0
Ю 3 30 км 5/0
[Ac trans Ci sp]
+20.5 +13.5 64 +23 +28 комфорт 1014.3 1010.2
ЮВ 3 30 км 5/0
[Ac trans Ci fib]
+22.5 +14.1 59 +26 +33 жарко 1014.1 1010.1
Ю 3 30 км 4/1 1000 м
[Cb calv Ac trans Ci fib]
+23.9 +15.1 58 +27 +35 жарко 1014.2 1010.2
ЮВ 3 26 км 5/4 1500 м
[Cb calv Ci fib]
+24.5 +15.1 56 +27 +35 жарко 1014.0 1010.0
СЗ 5 24 км гроза без осадков 8/8 1000 м
[Cb cap]
+20.8 +15.8 73 +24 +26 комфорт 1014.1 1010.1
З 3 {13} 10 км гроза без осадков {ливн. дождь} 9/9 600 м
[Cb cap]
+16.4 +15.8 96 +16 +17 1015.5 1011.4 6
З 8 {11} 35 км в посл. час гроза 8/6 600 м
[Cb cap Ci ing]
+17.2 +14.7 85 +16 +17 1016.0 1011.9
З 5 40 км 8/3 600 м
[Cb calv Ac cuf]
+17.5 +13.6 78 +17 +19 1016.1 1012.0
З 6 {11} 35 км {гроза} 9/3 600 м
[Cb cap Ac As]
+17.8 +12.5 71 +17 +18 1016.3 1012.2
СЗ 3 45 км гроза без осадков 9/9 1000 м
[Cb cap]
+17.1 +11.6 70 +17 +17 1016.8 1012.7
Местоположение метеостанции Кошалин (Польша): широта 54.20 долгота 16.15 высота над уровнем моря 34 м.
В архиве по умолчанию представлена погода в Кошалине за последнюю неделю. Архивные данные за месяц целиком и за предыдущие месяцы, начиная с января 2011 года, Вы можете получить, выбрав интересующий диапазон дат из раскрывающегося списка и нажав кнопку "Найти!".
*Определитесь, кто Вы:
Внимание! Время в таблицах - всемирное. Для получения местного времени необходимо прибавить поправку, которая равна 1 ч.
Некоторые строки с данными для отдельных станций могут быть выделены курсивом. Это означает, что фактические данные отсутствуют по различным причинам, а приведенные значения являются расчетными модельными данными для данного пункта наблюдений.
Смотрите также архив погоды в соседних городах и на ближайших метеорологических станциях:
Партнеры нашего сайта:      
Пояснения к столбцам:
  • Ветер - указаны скорость ветра в м/с - средняя за 10 мин, порывы в срок и между сроками (в фигурных скобках) и направление, откуда дует ветер: С - северный,
  • СВ - северо-восточный, В - восточный, ЮВ - юго-восточный, Ю - южный, ЮЗ - юго-западный, З - западный, СЗ - северо-западный.
  • Видимость - горизонтальная дальность видимости в метрах или километрах. При видимости от 1 до 10 км при отсутствии осадков обычно наблюдается дымка, при ухудшении видимости до 1 км и менее - туман. В сухую погоду видимость может ухудшаться дымом, пылью или мглою.
  • Явления - указаны атмосферные явления, наблюдавшиеся в срок или в последний час перед сроком; фигурными скобками обозначены явления, наблюдавшиеся между сроками (за 1-3 часа до срока); квадратными скобками обозначены град или гололедные отложения с указанием их диаметра в мм.
  • Облачность - указаны через наклонную черту общая и нижняя облачность в баллах и высота нижней границы облаков в метрах; квадратными скобками обозначены формы облаков: Ci - перистые, Cs - перисто-слоистые, Cc - перисто-кучевые, Ac - высококучевые, As - высокослоистые, Sc - слоисто-кучевые, Ns - слоисто-дождевые, Cu - кучевые, Cb - кучево-дождевые. Подробнее классификацию облаков см. в Атласе облаков (PDF).
  • T - Температура воздуха - температура, измеренная на высоте 2 м над землей.
  • Td - Температура точки росы - температура, при понижении до которой содержащийся в воздухе водяной пар достигнет насыщения.
  • f - Относительная влажность воздуха - влажноcть воздуха, измеренная на высоте 2 м над землей.
  • Te - Эффективная температура - температура, которую ощущает одетый по сезону человек в тени. Характеристика душности погоды. При расчете учитывается влияние влажности воздуха и скорости ветра на теплоощущения человека.
  • Tes - Эффективная температура на солнце - температура, которую ощущает человек, с поправкой на солнечный нагрев. Характеристика знойности погоды. Зависит от высоты солнца над горизонтом, облачности и скорости ветра. Ночью, в пасмурную погоду, а также при ветре 12 м/с и более поправка равна нулю.
  • P - Атмосферное давление - приведенное к уровню моря атмосферное давление.
  • Po - Атмосферное давление - измеренное на уровне метеостанции атмосферное давление.
  • Tmin - Минимальная температура - минимум температуры воздуха на высоте 2 м над землей.
  • Tmax - Максимальная температура - максимум температуры воздуха на высоте 2 м над землей.
  • R - Количество осадков - Количество выпавших осадков за период времени, мм. При наведении курсора мыши на число - период времени, за который выпало указанное количество осадков.
  • R24 - Количество осадков - Количество выпавших осадков за 24 часа, мм.
  • S - Снежный покров - Высота снежного покрова, см. При наведении курсора мыши на число - состояние снежного покрова и степень покрытия местности в баллах.